DELTA 1 DEB, 10767

Orbit data source: Space-Track

DELTA 1 DEB, 10767 is space debris in SSO originally from a launch on Thu, 29 Jul 1976 UTC launched from the Air Force Western Test Range (AFWTR). Debris objects in space refer to the collection of defunct objects orbiting the Earth. Examples of debris include non-operational satellites, rocket bodies, and fragments generated from explosions, collisions, or faulty payload assembly.

Loading next visibility...
Identifier
10767, 1976-077BQ
Orbit
SSO
Country
Flag of USUS
Related business
Manufacturer
Unknown
Mission
Spacecraft
Bus & Motor
Unknown
Mass
Unknown
Launch date (UTC)
1976-07-29 (50 years ago)
Launch vehicle
Unknown
Launch site
Air Force Western Test Range (AFWTR)
Object type
Payload
Rocket body
Debris
Shape & HBR
Unknown shape, 0.4 m
Radar Cross Section
Medium (>0.1 m² and <1 m²)

Expand to show TLE details & history
Last TLE update: 6 hours ago

TLE from 6 hours ago
0 DELTA 1 DEB
1 10767U 76077BQ  26119.18591617 -.00000004  00000-0  34551-3 0  9991
2 10767 102.4256 104.2818 0064356 330.5875  94.1083 12.31955370236835
Epoch: 2026-04-29T04:27Z
TLE epoch observation values (Epoch: 2026-04-29T04:27:43.157Z)
Latitude
62.73039°
Longitude
155.02769°
Altitude
1,555.43 km
Speed
7.093 km/s
True Right ascension
05h 16m 25s
True Declination
62° 36' 15"
Sunlit
Object was in daylight at epoch
Visualization orbit readout
Latitude
Unknown
Longitude
Unknown
Altitude
Unknown
Speed
Unknown
Apparent Right ascension
Unknown
Apparent Declination
Unknown
Sunlit
N/A
Visualization observer readout
Local Sidereal Time
17:57:19
Azimuth
Unknown
Elevation
Unknown
Doppler factor
Unknown
Orbital elements
Apogee altitude
1,589.45 km
Perigee altitude
1,487.553 km
Semi-major axis
7,916.638 km
Eccentricity
0.00644
Inclination
102.4256°
RAAN
104.2818°
Arg. of periapsis
330.5875°
True anomaly
94.84343°
Mean anomaly
94.1083°
Eccentric anomaly
94.47591°
Mean motion
3.08129 °/min
Orbital period
116.83 mins
BSTAR
0.00034551
Loading maneuver chart data...
Computing Atmospheric mass density...
Loading historical data...
Loading historical data...
Loading historical data...
Loading historical data...
Loading historical data...
Loading historical data...
Loading historical data...

Documentation

Showing up to 5 results
|